,,PressureMeas_1m,,PRMeasQMR101_1,,RHStat155_1m_1,,SRMeasQMS101R_1m,,TAStat155_1m_1,,GenWind_1,,GenWind_1,
2019-04-01, 00:00:06,VALID,919.845,VALID,0.0,VALID,99.497,VALID,-0.008,VALID,20.246,VALID,283.0,VALID,0.0,
2019-04-01, 00:01:06,VALID,919.829,VALID,0.0,VALID,99.466,VALID,-0.006,VALID,20.234,VALID,234.0,VALID,0.0,
2019-04-01, 00:02:06,VALID,919.813,VALID,0.0,VALID,99.47,VALID,-0.006,VALID,20.226,VALID,234.0,VALID,0.0,
2019-04-01, 00:03:06,VALID,919.805,VALID,0.0,VALID,99.48,VALID,0.007,VALID,20.23,VALID,240.0,VALID,0.0,
2019-04-01, 00:04:06,VALID,919.798,VALID,0.0,VALID,99.497,VALID,0.006,VALID,20.265,VALID,10.0,VALID,0.0,
2019-04-01, 00:05:06,VALID,919.781,VALID,0.0,VALID,99.516,VALID,-0.001,VALID,20.285,VALID,24.0,VALID,0.0,
2019-04-01, 00:06:06,VALID,919.779,VALID,0.0,VALID,99.511,VALID,0.005,VALID,20.253,VALID,38.0,VALID,0.0,
2019-04-01, 00:07:06,VALID,919.778,VALID,0.0,VALID,99.496,VALID,-0.009,VALID,20.239,VALID,18.0,VALID,0.0,
2019-04-01, 00:08:06,VALID,919.776,VALID,0.0,VALID,99.5,VALID,-0.017,VALID,20.259,VALID,359.0,VALID,0.0,
2019-04-01, 00:09:06,VALID,919.77,VALID,0.0,VALID,99.496,VALID,-0.005,VALID,20.242,VALID,7.0,VALID,0.0,
2019-04-01, 00:10:06,VALID,919.778,VALID,0.0,VALID,99.499,VALID,0.021,VALID,20.248,VALID,10.0,VALID,0.0,
2019-04-01, 00:11:06,VALID,919.786,VALID,0.0,VALID,99.493,VALID,-0.002,VALID,20.258,VALID,17.0,VALID,0.0,
2019-04-01, 00:12:06,VALID,919.781,VALID,0.0,VALID,99.503,VALID,0.015,VALID,20.257,VALID,18.0,VALID,0.0,
2019-04-01, 00:13:06,VALID,919.792,VALID,0.0,VALID,99.498,VALID,0.004,VALID,20.236,VALID,6.0,VALID,0.0,
2019-04-01, 00:14:06,VALID,919.77,VALID,0.0,VALID,99.492,VALID,0.007,VALID,20.222,VALID,5.0,VALID,0.0,
2019-04-01, 00:15:06,VALID,919.755,VALID,0.0,VALID,99.494,VALID,0.015,VALID,20.217,VALID,3.0,VALID,0.0,
2019-04-01, 00:16:06,VALID,919.755,VALID,0.0,VALID,99.498,VALID,0.003,VALID,20.217,VALID,358.0,VALID,0.0,
2019-04-01, 00:17:06,VALID,919.766,VALID,0.0,VALID,99.488,VALID,0.005,VALID,20.193,VALID,358.0,VALID,0.0,
2019-04-01, 00:18:06,VALID,919.761,VALID,0.0,VALID,99.504,VALID,-0.004,VALID,20.204,VALID,312.0,VALID,0.0,
2019-04-01, 00:19:06,VALID,919.753,VALID,0.0,VALID,99.506,VALID,0.015,VALID,20.194,VALID,7.0,VALID,0.0,
2019-04-01, 00:20:06,VALID,919.758,VALID,0.0,VALID,99.504,VALID,0.003,VALID,20.164,VALID,354.0,VALID,0.051,
2019-04-01, 00:21:06,VALID,919.759,VALID,0.0,VALID,99.509,VALID,-0.002,VALID,20.156,VALID,348.0,VALID,0.031,
2019-04-01, 00:22:06,VALID,919.771,VALID,0.0,VALID,99.487,VALID,0.003,VALID,20.152,VALID,342.0,VALID,0.0,
2019-04-01, 00:23:06,VALID,919.769,VALID,0.0,VALID,99.488,VALID,0.002,VALID,20.156,VALID,339.0,VALID,0.0,
2019-04-01, 00:24:06,VALID,919.733,VALID,0.0,VALID,99.49,VALID,0.007,VALID,20.153,VALID,346.0,VALID,0.0,
2019-04-01, 00:25:06,VALID,919.74,VALID,0.0,VALID,99.496,VALID,0.003,VALID,20.151,VALID,344.0,VALID,0.0,
2019-04-01, 00:26:06,VALID,919.726,VALID,0.0,VALID,99.502,VALID,0.002,VALID,20.15,VALID,2.0,VALID,0.0,
2019-04-01, 00:27:06,VALID,919.722,VALID,0.0,VALID,99.489,VALID,-0.001,VALID,20.163,VALID,14.0,VALID,0.0,
2019-04-01, 00:28:06,VALID,919.686,VALID,0.0,VALID,99.508,VALID,-0.004,VALID,20.168,VALID,356.0,VALID,0.0,
2019-04-01, 00:29:06,VALID,919.678,VALID,0.0,VALID,99.502,VALID,0.004,VALID,20.151,VALID,1.0,VALID,0.0,
2019-04-01, 00:30:06,VALID,919.65,VALID,0.0,VALID,99.515,VALID,0.011,VALID,20.149,VALID,10.0,VALID,0.0,
2019-04-01, 00:31:06,VALID,919.643,VALID,0.0,VALID,99.51,VALID,-0.009,VALID,20.157,VALID,359.0,VALID,0.0,
2019-04-01, 00:32:06,VALID,919.639,VALID,0.0,VALID,99.503,VALID,0.009,VALID,20.162,VALID,323.0,VALID,0.0,
2019-04-01, 00:33:06,VALID,919.625,VALID,0.0,VALID,99.498,VALID,0.02,VALID,20.147,VALID,351.0,VALID,0.0,
2019-04-01, 00:34:06,VALID,919.613,VALID,0.0,VALID,99.508,VALID,0.0,VALID,20.14,VALID,351.0,VALID,0.0,
2019-04-01, 00:35:06,VALID,919.605,VALID,0.0,VALID,99.52,VALID,0.009,VALID,20.134,VALID,351.0,VALID,0.0,
2019-04-01, 00:36:06,VALID,919.597,VALID,0.0,VALID,99.513,VALID,0.014,VALID,20.128,VALID,349.0,VALID,0.0,
2019-04-01, 00:37:06,VALID,919.596,VALID,0.0,VALID,99.501,VALID,0.0,VALID,20.144,VALID,338.0,VALID,0.0,
2019-04-01, 00:38:06,VALID,919.571,VALID,0.0,VALID,99.508,VALID,-0.014,VALID,20.151,VALID,354.0,VALID,0.0,
2019-04-01, 00:39:06,VALID,919.574,VALID,0.0,VALID,99.509,VALID,0.016,VALID,20.174,VALID,3.0,VALID,0.0,
2019-04-01, 00:40:06,VALID,919.555,VALID,0.0,VALID,99.513,VALID,0.002,VALID,20.179,VALID,330.0,VALID,0.0,
2019-04-01, 00:41:06,VALID,919.544,VALID,0.0,VALID,99.517,VALID,0.015,VALID,20.179,VALID,339.0,VALID,0.0,
2019-04-01, 00:42:06,VALID,919.516,VALID,0.0,VALID,99.512,VALID,0.019,VALID,20.169,VALID,7.0,VALID,0.0,
2019-04-01, 00:43:06,VALID,919.511,VALID,0.0,VALID,99.514,VALID,0.005,VALID,20.171,VALID,11.0,VALID,0.0,
2019-04-01, 00:44:06,VALID,919.518,VALID,0.0,VALID,99.508,VALID,-0.002,VALID,20.169,VALID,349.0,VALID,0.0,
2019-04-01, 00:45:06,VALID,919.491,VALID,0.0,VALID,99.511,VALID,0.031,VALID,20.149,VALID,340.0,VALID,0.0,
2019-04-01, 00:46:06,VALID,919.488,VALID,0.0,VALID,99.517,VALID,0.042,VALID,20.133,VALID,308.0,VALID,0.0,
2019-04-01, 00:47:06,VALID,919.479,VALID,0.0,VALID,99.51,VALID,0.022,VALID,20.137,VALID,338.0,VALID,0.0,
2019-04-01, 00:48:06,VALID,919.473,VALID,0.0,VALID,99.519,VALID,0.016,VALID,20.139,VALID,345.0,VALID,0.0,
2019-04-01, 00:49:06,VALID,919.455,VALID,0.0,VALID,99.507,VALID,0.011,VALID,20.148,VALID,6.0,VALID,0.0,
2019-04-01, 00:50:06,VALID,919.413,VALID,0.0,VALID,99.519,VALID,0.02,VALID,20.161,VALID,6.0,VALID,0.0,
2019-04-01, 00:51:06,VALID,919.398,VALID,0.0,VALID,99.518,VALID,0.026,VALID,20.164,VALID,342.0,VALID,0.0,
2019-04-01, 00:52:06,VALID,919.381,VALID,0.0,VALID,99.52,VALID,0.026,VALID,20.141,VALID,345.0,VALID,0.0,
2019-04-01, 00:53:06,VALID,919.37,VALID,0.0,VALID,99.518,VALID,0.018,VALID,20.155,VALID,337.0,VALID,0.0,
2019-04-01, 00:54:06,VALID,919.349,VALID,0.0,VALID,99.514,VALID,0.023,VALID,20.15,VALID,315.0,VALID,0.0,
2019-04-01, 00:55:06,VALID,919.348,VALID,0.0,VALID,99.519,VALID,0.03,VALID,20.159,VALID,351.0,VALID,0.0,
2019-04-01, 00:56:06,VALID,919.344,VALID,0.0,VALID,99.521,VALID,0.035,VALID,20.164,VALID,356.0,VALID,0.0,
2019-04-01, 00:57:06,VALID,919.341,VALID,0.0,VALID,99.522,VALID,0.028,VALID,20.176,VALID,346.0,VALID,0.0,
2019-04-01, 00:58:06,VALID,919.355,VALID,0.0,VALID,99.52,VALID,0.034,VALID,20.191,VALID,15.0,VALID,0.0,
2019-04-01, 00:59:06,VALID,919.356,VALID,0.0,VALID,99.521,VALID,-0.002,VALID,20.193,VALID,347.0,VALID,0.0,
2019-04-01, 01:00:06,VALID,919.36,VALID,0.0,VALID,99.508,VALID,-0.034,VALID,20.177,VALID,351.0,VALID,0.0,
2019-04-01, 01:01:06,VALID,919.359,VALID,0.0,VALID,99.513,VALID,-0.035,VALID,20.164,VALID,320.0,VALID,0.0,
2019-04-01, 01:02:06,VALID,919.337,VALID,0.0,VALID,99.518,VALID,-0.006,VALID,20.157,VALID,283.0,VALID,0.0,
2019-04-01, 01:03:06,VALID,919.34,VALID,0.0,VALID,99.504,VALID,0.021,VALID,20.177,VALID,342.0,VALID,0.0,
2019-04-01, 01:04:06,VALID,919.339,VALID,0.0,VALID,99.537,VALID,-0.01,VALID,20.2,VALID,336.0,VALID,0.0,
2019-04-01, 01:05:06,VALID,919.325,VALID,0.0,VALID,99.514,VALID,-0.019,VALID,20.185,VALID,341.0,VALID,0.0,
2019-04-01, 01:06:06,VALID,919.319,VALID,0.0,VALID,99.53,VALID,0.004,VALID,20.181,VALID,343.0,VALID,0.0,
2019-04-01, 01:07:06,VALID,919.312,VALID,0.0,VALID,99.532,VALID,-0.019,VALID,20.183,VALID,330.0,VALID,0.0,
2019-04-01, 01:08:06,VALID,919.295,VALID,0.0,VALID,99.513,VALID,-0.011,VALID,20.2,VALID,354.0,VALID,0.0,
2019-04-01, 01:09:06,VALID,919.289,VALID,0.0,VALID,99.526,VALID,-0.015,VALID,20.223,VALID,1.0,VALID,0.0,
2019-04-01, 01:10:06,VALID,919.264,VALID,0.0,VALID,99.517,VALID,-0.036,VALID,20.228,VALID,351.0,VALID,0.0,
2019-04-01, 01:11:06,VALID,919.262,VALID,0.0,VALID,99.53,VALID,-0.028,VALID,20.218,VALID,358.0,VALID,0.0,
2019-04-01, 01:12:06,VALID,919.236,VALID,0.0,VALID,99.518,VALID,-0.019,VALID,20.217,VALID,10.0,VALID,0.0,
2019-04-01, 01:13:06,VALID,919.224,VALID,0.0,VALID,99.519,VALID,-0.011,VALID,20.238,VALID,347.0,VALID,0.0,
2019-04-01, 01:14:06,VALID,919.198,VALID,0.0,VALID,99.526,VALID,-0.01,VALID,20.224,VALID,324.0,VALID,0.0,
2019-04-01, 01:15:06,VALID,919.19,VALID,0.0,VALID,99.508,VALID,-0.014,VALID,20.227,VALID,311.0,VALID,0.0,
2019-04-01, 01:16:06,VALID,919.185,VALID,0.0,VALID,99.508,VALID,0.009,VALID,20.201,VALID,298.0,VALID,0.0,
2019-04-01, 01:17:06,VALID,919.173,VALID,0.0,VALID,99.502,VALID,-0.02,VALID,20.186,VALID,348.0,VALID,0.0,
2019-04-01, 01:18:06,VALID,919.157,VALID,0.0,VALID,99.513,VALID,0.008,VALID,20.202,VALID,7.0,VALID,0.0,
2019-04-01, 01:19:06,VALID,919.136,VALID,0.0,VALID,99.518,VALID,-0.0,VALID,20.224,VALID,6.0,VALID,0.0,
2019-04-01, 01:20:06,VALID,919.134,VALID,0.0,VALID,99.527,VALID,0.004,VALID,20.223,VALID,3.0,VALID,0.0,
2019-04-01, 01:21:06,VALID,919.135,VALID,0.0,VALID,99.519,VALID,-0.006,VALID,20.229,VALID,338.0,VALID,0.0,
2019-04-01, 01:22:06,VALID,919.13,VALID,0.0,VALID,99.534,VALID,-0.003,VALID,20.205,VALID,352.0,VALID,0.0,
2019-04-01, 01:23:06,VALID,919.123,VALID,0.0,VALID,99.519,VALID,0.009,VALID,20.197,VALID,360.0,VALID,0.0,
2019-04-01, 01:24:06,VALID,919.119,VALID,0.0,VALID,99.525,VALID,0.014,VALID,20.197,VALID,7.0,VALID,0.0,
2019-04-01, 01:25:06,VALID,919.109,VALID,0.0,VALID,99.527,VALID,0.005,VALID,20.203,VALID,357.0,VALID,0.0,
2019-04-01, 01:26:06,VALID,919.122,VALID,0.0,VALID,99.523,VALID,0.008,VALID,20.212,VALID,336.0,VALID,0.0,
2019-04-01, 01:27:06,VALID,919.117,VALID,0.0,VALID,99.522,VALID,0.003,VALID,20.222,VALID,9.0,VALID,0.0,
2019-04-01, 01:28:06,VALID,919.121,VALID,0.0,VALID,99.527,VALID,0.012,VALID,20.237,VALID,325.0,VALID,0.0,
2019-04-01, 01:29:06,VALID,919.128,VALID,0.0,VALID,99.529,VALID,-0.006,VALID,20.231,VALID,352.0,VALID,0.0,
2019-04-01, 01:30:06,VALID,919.099,VALID,0.0,VALID,99.523,VALID,-0.006,VALID,20.222,VALID,342.0,VALID,0.0,
2019-04-01, 01:31:06,VALID,919.088,VALID,0.0,VALID,99.529,VALID,-0.005,VALID,20.214,VALID,348.0,VALID,0.0,
2019-04-01, 01:32:06,VALID,919.076,VALID,0.0,VALID,99.513,VALID,-0.009,VALID,20.209,VALID,346.0,VALID,0.0,
2019-04-01, 01:33:06,VALID,919.075,VALID,0.0,VALID,99.525,VALID,-0.003,VALID,20.209,VALID,340.0,VALID,0.0,
2019-04-01, 01:34:06,VALID,919.056,VALID,0.0,VALID,99.529,VALID,-0.008,VALID,20.208,VALID,316.0,VALID,0.0,
2019-04-01, 01:35:06,VALID,919.049,VALID,0.0,VALID,99.524,VALID,0.001,VALID,20.219,VALID,330.0,VALID,0.0,
2019-04-01, 01:36:06,VALID,919.061,VALID,0.0,VALID,99.525,VALID,-0.005,VALID,20.224,VALID,338.0,VALID,0.0,
2019-04-01, 01:37:06,VALID,919.047,VALID,0.0,VALID,99.517,VALID,-0.002,VALID,20.232,VALID,342.0,VALID,0.0,
2019-04-01, 01:38:06,VALID,919.028,VALID,0.0,VALID,99.535,VALID,-0.013,VALID,20.23,VALID,292.0,VALID,0.0,
2019-04-01, 01:39:06,VALID,919.026,VALID,0.0,VALID,99.521,VALID,-0.0,VALID,20.232,VALID,332.0,VALID,0.0,
2019-04-01, 01:40:06,VALID,919.006,VALID,0.0,VALID,99.527,VALID,-0.002,VALID,20.219,VALID,356.0,VALID,0.0,
2019-04-01, 01:41:06,VALID,918.986,VALID,0.0,VALID,99.518,VALID,0.012,VALID,20.213,VALID,348.0,VALID,0.0,
2019-04-01, 01:42:06,VALID,918.979,VALID,0.0,VALID,99.511,VALID,0.001,VALID,20.213,VALID,357.0,VALID,0.0,
2019-04-01, 01:43:06,VALID,918.963,VALID,0.0,VALID,99.521,VALID,0.004,VALID,20.223,VALID,319.0,VALID,0.0,
2019-04-01, 01:44:06,VALID,918.95,VALID,0.0,VALID,99.525,VALID,0.004,VALID,20.225,VALID,1.0,VALID,0.0,
2019-04-01, 01:45:06,VALID,918.947,VALID,0.0,VALID,99.524,VALID,0.006,VALID,20.223,VALID,1.0,VALID,0.0,
2019-04-01, 01:46:06,VALID,918.94,VALID,0.0,VALID,99.532,VALID,-0.007,VALID,20.238,VALID,350.0,VALID,0.0,
2019-04-01, 01:47:06,VALID,918.903,VALID,0.0,VALID,99.53,VALID,-0.001,VALID,20.24,VALID,354.0,VALID,0.0,
2019-04-01, 01:48:06,VALID,918.886,VALID,0.0,VALID,99.528,VALID,0.002,VALID,20.227,VALID,3.0,VALID,0.0,
2019-04-01, 01:49:06,VALID,918.866,VALID,0.0,VALID,99.519,VALID,0.006,VALID,20.239,VALID,2.0,VALID,0.0,
2019-04-01, 01:50:06,VALID,918.854,VALID,0.0,VALID,99.531,VALID,-0.013,VALID,20.268,VALID,7.0,VALID,0.0,
2019-04-01, 01:51:06,VALID,918.837,VALID,0.0,VALID,99.524,VALID,-0.022,VALID,20.263,VALID,12.0,VALID,0.0,
2019-04-01, 01:52:06,VALID,918.792,VALID,0.0,VALID,99.523,VALID,-0.005,VALID,20.256,VALID,18.0,VALID,0.0,
2019-04-01, 01:53:06,VALID,918.769,VALID,0.0,VALID,99.525,VALID,-0.0,VALID,20.264,VALID,17.0,VALID,0.0,
2019-04-01, 01:54:06,VALID,918.739,VALID,0.0,VALID,99.518,VALID,-0.006,VALID,20.261,VALID,17.0,VALID,0.0,
2019-04-01, 01:55:06,VALID,918.719,VALID,0.0,VALID,99.52,VALID,-0.01,VALID,20.271,VALID,18.0,VALID,0.0,
2019-04-01, 01:56:06,VALID,918.697,VALID,0.0,VALID,99.537,VALID,-0.008,VALID,20.273,VALID,17.0,VALID,0.0,
2019-04-01, 01:57:06,VALID,918.666,VALID,0.0,VALID,99.513,VALID,-0.009,VALID,20.266,VALID,14.0,VALID,0.0,
2019-04-01, 01:58:06,VALID,918.67,VALID,0.0,VALID,99.544,VALID,-0.003,VALID,20.285,VALID,10.0,VALID,0.0,
2019-04-01, 01:59:06,VALID,918.649,VALID,0.0,VALID,99.52,VALID,-0.014,VALID,20.26,VALID,358.0,VALID,0.0,
2019-04-01, 02:00:06,VALID,918.63,VALID,0.0,VALID,99.523,VALID,-0.037,VALID,20.259,VALID,358.0,VALID,0.0,
2019-04-01, 02:01:06,VALID,918.622,VALID,0.0,VALID,99.515,VALID,-0.031,VALID,20.29,VALID,360.0,VALID,0.0,
2019-04-01, 02:02:06,VALID,918.607,VALID,0.0,VALID,99.52,VALID,-0.012,VALID,20.299,VALID,360.0,VALID,0.0,
2019-04-01, 02:03:06,VALID,918.586,VALID,0.0,VALID,99.519,VALID,-0.026,VALID,20.297,VALID,360.0,VALID,0.0,
2019-04-01, 02:04:06,VALID,918.595,VALID,0.0,VALID,99.508,VALID,-0.005,VALID,20.276,VALID,360.0,VALID,0.0,
2019-04-01, 02:05:06,VALID,918.605,VALID,0.0,VALID,99.515,VALID,-0.022,VALID,20.273,VALID,360.0,VALID,0.0,
2019-04-01, 02:06:06,VALID,918.58,VALID,0.0,VALID,99.52,VALID,-0.025,VALID,20.294,VALID,15.0,VALID,0.0,
2019-04-01, 02:07:06,VALID,918.591,VALID,0.0,VALID,99.527,VALID,0.001,VALID,20.302,VALID,17.0,VALID,0.0,
2019-04-01, 02:08:06,VALID,918.577,VALID,0.0,VALID,99.519,VALID,-0.006,VALID,20.328,VALID,17.0,VALID,0.0,
2019-04-01, 02:09:06,VALID,918.577,VALID,0.0,VALID,99.519,VALID,-0.01,VALID,20.345,VALID,17.0,VALID,0.0,
2019-04-01, 02:10:06,VALID,918.557,VALID,0.0,VALID,99.526,VALID,-0.006,VALID,20.304,VALID,17.0,VALID,0.0,
2019-04-01, 02:11:06,VALID,918.539,VALID,0.0,VALID,99.525,VALID,0.006,VALID,20.314,VALID,17.0,VALID,0.0,
2019-04-01, 02:12:06,VALID,918.512,VALID,0.0,VALID,99.516,VALID,-0.01,VALID,20.302,VALID,17.0,VALID,0.0,
2019-04-01, 02:13:06,VALID,918.497,VALID,0.0,VALID,99.509,VALID,-0.022,VALID,20.322,VALID,17.0,VALID,0.0,
2019-04-01, 02:14:06,VALID,918.478,VALID,0.0,VALID,99.515,VALID,-0.002,VALID,20.34,VALID,17.0,VALID,0.0,
2019-04-01, 02:15:06,VALID,918.453,VALID,0.0,VALID,99.526,VALID,0.008,VALID,20.344,VALID,17.0,VALID,0.0,
2019-04-01, 02:16:06,VALID,918.448,VALID,0.0,VALID,99.499,VALID,0.008,VALID,20.322,VALID,17.0,VALID,0.0,
2019-04-01, 02:17:06,VALID,918.445,VALID,0.0,VALID,99.507,VALID,0.015,VALID,20.304,VALID,14.0,VALID,0.0,
2019-04-01, 02:18:06,VALID,918.428,VALID,0.0,VALID,99.511,VALID,0.011,VALID,20.276,VALID,12.0,VALID,0.0,
2019-04-01, 02:19:06,VALID,918.414,VALID,0.0,VALID,99.495,VALID,0.022,VALID,20.249,VALID,9.0,VALID,0.0,
2019-04-01, 02:20:06,VALID,918.415,VALID,0.0,VALID,99.503,VALID,0.007,VALID,20.246,VALID,6.0,VALID,0.0,
2019-04-01, 02:21:06,VALID,918.417,VALID,0.0,VALID,99.502,VALID,-0.001,VALID,20.244,VALID,7.0,VALID,0.0,
2019-04-01, 02:22:06,VALID,918.411,VALID,0.0,VALID,99.504,VALID,0.013,VALID,20.23,VALID,2.0,VALID,0.0,
2019-04-01, 02:23:06,VALID,918.409,VALID,0.0,VALID,99.497,VALID,0.017,VALID,20.229,VALID,353.0,VALID,0.0,
2019-04-01, 02:24:06,VALID,918.432,VALID,0.0,VALID,99.513,VALID,0.029,VALID,20.24,VALID,360.0,VALID,0.0,
2019-04-01, 02:25:06,VALID,918.419,VALID,0.0,VALID,99.519,VALID,0.025,VALID,20.249,VALID,360.0,VALID,0.0,
2019-04-01, 02:26:06,VALID,918.439,VALID,0.0,VALID,99.499,VALID,0.014,VALID,20.229,VALID,360.0,VALID,0.0,
2019-04-01, 02:27:06,VALID,918.438,VALID,0.0,VALID,99.505,VALID,0.001,VALID,20.214,VALID,360.0,VALID,0.0,
2019-04-01, 02:28:06,VALID,918.446,VALID,0.0,VALID,99.507,VALID,-0.015,VALID,20.242,VALID,360.0,VALID,0.0,
2019-04-01, 02:29:06,VALID,918.465,VALID,0.0,VALID,99.504,VALID,-0.013,VALID,20.246,VALID,360.0,VALID,0.0,
2019-04-01, 02:30:06,VALID,918.46,VALID,0.0,VALID,99.494,VALID,-0.002,VALID,20.248,VALID,360.0,VALID,0.0,
2019-04-01, 02:31:06,VALID,918.464,VALID,0.0,VALID,99.501,VALID,-0.001,VALID,20.255,VALID,360.0,VALID,0.0,
2019-04-01, 02:32:06,VALID,918.476,VALID,0.0,VALID,99.497,VALID,-0.008,VALID,20.262,VALID,360.0,VALID,0.0,
2019-04-01, 02:33:06,VALID,918.469,VALID,0.0,VALID,99.517,VALID,0.005,VALID,20.275,VALID,360.0,VALID,0.0,
2019-04-01, 02:34:06,VALID,918.497,VALID,0.0,VALID,99.522,VALID,0.008,VALID,20.266,VALID,360.0,VALID,0.0,
2019-04-01, 02:35:06,VALID,918.497,VALID,0.0,VALID,99.508,VALID,0.003,VALID,20.28,VALID,360.0,VALID,0.0,
2019-04-01, 02:36:06,VALID,918.514,VALID,0.0,VALID,99.526,VALID,0.009,VALID,20.306,VALID,360.0,VALID,0.0,
2019-04-01, 02:37:06,VALID,918.531,VALID,0.0,VALID,99.517,VALID,0.006,VALID,20.299,VALID,360.0,VALID,0.0,
2019-04-01, 02:38:06,VALID,918.537,VALID,0.0,VALID,99.509,VALID,0.008,VALID,20.301,VALID,360.0,VALID,0.0,
2019-04-01, 02:39:06,VALID,918.557,VALID,0.0,VALID,99.505,VALID,0.006,VALID,20.289,VALID,360.0,VALID,0.0,
2019-04-01, 02:40:06,VALID,918.563,VALID,0.0,VALID,99.487,VALID,-0.004,VALID,20.267,VALID,360.0,VALID,0.0,
2019-04-01, 02:41:06,VALID,918.591,VALID,0.0,VALID,99.523,VALID,0.019,VALID,20.262,VALID,360.0,VALID,0.0,
2019-04-01, 02:42:06,VALID,918.61,VALID,0.0,VALID,99.499,VALID,0.008,VALID,20.258,VALID,360.0,VALID,0.0,
2019-04-01, 02:43:06,VALID,918.619,VALID,0.0,VALID,99.511,VALID,0.018,VALID,20.259,VALID,360.0,VALID,0.0,
2019-04-01, 02:44:06,VALID,918.628,VALID,0.0,VALID,99.511,VALID,0.008,VALID,20.251,VALID,360.0,VALID,0.0,
2019-04-01, 02:45:06,VALID,918.614,VALID,0.0,VALID,99.508,VALID,-0.03,VALID,20.26,VALID,360.0,VALID,0.0,
2019-04-01, 02:46:06,VALID,918.637,VALID,0.0,VALID,99.506,VALID,-0.019,VALID,20.294,VALID,360.0,VALID,0.0,
2019-04-01, 02:47:06,VALID,918.633,VALID,0.0,VALID,99.513,VALID,-0.017,VALID,20.309,VALID,360.0,VALID,0.0,
2019-04-01, 02:48:06,VALID,918.636,VALID,0.0,VALID,99.51,VALID,-0.009,VALID,20.319,VALID,360.0,VALID,0.0,
2019-04-01, 02:49:06,VALID,918.63,VALID,0.0,VALID,99.509,VALID,-0.011,VALID,20.314,VALID,360.0,VALID,0.0,
2019-04-01, 02:50:06,VALID,918.626,VALID,0.0,VALID,99.498,VALID,-0.025,VALID,20.305,VALID,360.0,VALID,0.0,
2019-04-01, 02:51:06,VALID,918.614,VALID,0.0,VALID,99.493,VALID,-0.022,VALID,20.288,VALID,285.0,VALID,0.0,
2019-04-01, 02:52:06,VALID,918.612,VALID,0.0,VALID,99.485,VALID,-0.016,VALID,20.245,VALID,239.0,VALID,0.0,
2019-04-01, 02:53:06,VALID,918.611,VALID,0.0,VALID,99.482,VALID,-0.02,VALID,20.22,VALID,234.0,VALID,0.0,
2019-04-01, 02:54:06,VALID,918.594,VALID,0.0,VALID,99.487,VALID,-0.014,VALID,20.23,VALID,224.0,VALID,0.0,
2019-04-01, 02:55:06,VALID,918.608,VALID,0.0,VALID,99.494,VALID,-0.021,VALID,20.236,VALID,224.0,VALID,0.0,
2019-04-01, 02:56:06,VALID,918.572,VALID,0.0,VALID,99.504,VALID,-0.003,VALID,20.23,VALID,227.0,VALID,0.0,
2019-04-01, 02:57:06,VALID,918.57,VALID,0.0,VALID,99.495,VALID,-0.017,VALID,20.227,VALID,241.0,VALID,0.0,
2019-04-01, 02:58:06,VALID,918.545,VALID,0.0,VALID,99.497,VALID,-0.017,VALID,20.222,VALID,253.0,VALID,0.0,
2019-04-01, 02:59:06,VALID,918.533,VALID,0.0,VALID,99.498,VALID,-0.006,VALID,20.222,VALID,253.0,VALID,0.0,
2019-04-01, 03:00:06,VALID,918.521,VALID,0.0,VALID,99.511,VALID,0.003,VALID,20.251,VALID,253.0,VALID,0.0,
2019-04-01, 03:01:06,VALID,918.507,VALID,0.0,VALID,99.497,VALID,-0.012,VALID,20.249,VALID,317.0,VALID,0.0,
2019-04-01, 03:02:06,VALID,918.489,VALID,0.0,VALID,99.511,VALID,0.012,VALID,20.241,VALID,19.0,VALID,0.0,
2019-04-01, 03:03:06,VALID,918.462,VALID,0.0,VALID,99.508,VALID,-0.008,VALID,20.258,VALID,19.0,VALID,0.0,
2019-04-01, 03:04:06,VALID,918.449,VALID,0.0,VALID,99.497,VALID,-0.007,VALID,20.259,VALID,15.0,VALID,0.0,
2019-04-01, 03:05:06,VALID,918.444,VALID,0.0,VALID,99.52,VALID,0.022,VALID,20.258,VALID,14.0,VALID,0.0,
2019-04-01, 03:06:06,VALID,918.44,VALID,0.0,VALID,99.504,VALID,0.007,VALID,20.244,VALID,10.0,VALID,0.0,
2019-04-01, 03:07:06,VALID,918.416,VALID,0.0,VALID,99.516,VALID,0.001,VALID,20.229,VALID,10.0,VALID,0.0,
2019-04-01, 03:08:06,VALID,918.417,VALID,0.0,VALID,99.503,VALID,-0.005,VALID,20.234,VALID,13.0,VALID,0.0,
2019-04-01, 03:09:06,VALID,918.393,VALID,0.0,VALID,99.497,VALID,0.016,VALID,20.228,VALID,10.0,VALID,0.0,
2019-04-01, 03:10:06,VALID,918.382,VALID,0.0,VALID,99.51,VALID,0.007,VALID,20.218,VALID,9.0,VALID,0.0,
2019-04-01, 03:11:06,VALID,918.377,VALID,0.0,VALID,99.497,VALID,-0.012,VALID,20.213,VALID,15.0,VALID,0.0,
2019-04-01, 03:12:06,VALID,918.358,VALID,0.0,VALID,99.505,VALID,0.007,VALID,20.224,VALID,5.0,VALID,0.0,
2019-04-01, 03:13:06,VALID,918.337,VALID,0.0,VALID,99.509,VALID,-0.002,VALID,20.225,VALID,354.0,VALID,0.0,
2019-04-01, 03:14:06,VALID,918.326,VALID,0.0,VALID,99.519,VALID,0.009,VALID,20.233,VALID,357.0,VALID,0.0,
2019-04-01, 03:15:06,VALID,918.31,VALID,0.0,VALID,99.499,VALID,0.035,VALID,20.216,VALID,350.0,VALID,0.0,
2019-04-01, 03:16:06,VALID,918.293,VALID,0.0,VALID,99.492,VALID,0.024,VALID,20.201,VALID,352.0,VALID,0.0,
2019-04-01, 03:17:06,VALID,918.276,VALID,0.0,VALID,99.505,VALID,0.022,VALID,20.206,VALID,335.0,VALID,0.0,
2019-04-01, 03:18:06,VALID,918.277,VALID,0.0,VALID,99.495,VALID,0.02,VALID,20.198,VALID,340.0,VALID,0.0,
2019-04-01, 03:19:06,VALID,918.279,VALID,0.0,VALID,99.5,VALID,0.021,VALID,20.2,VALID,344.0,VALID,0.0,
2019-04-01, 03:20:06,VALID,918.294,VALID,0.0,VALID,99.513,VALID,0.028,VALID,20.19,VALID,330.0,VALID,0.0,
2019-04-01, 03:21:06,VALID,918.292,VALID,0.0,VALID,99.498,VALID,0.016,VALID,20.18,VALID,329.0,VALID,0.0,
2019-04-01, 03:22:06,VALID,918.292,VALID,0.0,VALID,99.489,VALID,0.015,VALID,20.173,VALID,315.0,VALID,0.0,
2019-04-01, 03:23:06,VALID,918.291,VALID,0.0,VALID,99.491,VALID,0.023,VALID,20.168,VALID,324.0,VALID,0.0,
2019-04-01, 03:24:06,VALID,918.291,VALID,0.0,VALID,99.503,VALID,0.041,VALID,20.18,VALID,357.0,VALID,0.0,
2019-04-01, 03:25:06,VALID,918.29,VALID,0.0,VALID,99.515,VALID,0.026,VALID,20.181,VALID,2.0,VALID,0.0,
2019-04-01, 03:26:06,VALID,918.276,VALID,0.0,VALID,99.504,VALID,0.038,VALID,20.181,VALID,344.0,VALID,0.0,
2019-04-01, 03:27:06,VALID,918.258,VALID,0.0,VALID,99.509,VALID,0.036,VALID,20.176,VALID,337.0,VALID,0.0,
2019-04-01, 03:28:06,VALID,918.245,VALID,0.0,VALID,99.499,VALID,0.038,VALID,20.17,VALID,335.0,VALID,0.0,
2019-04-01, 03:29:06,VALID,918.214,VALID,0.0,VALID,99.497,VALID,0.005,VALID,20.162,VALID,356.0,VALID,0.0,
2019-04-01, 03:30:06,VALID,918.202,VALID,0.0,VALID,99.504,VALID,-0.015,VALID,20.151,VALID,325.0,VALID,0.0,
2019-04-01, 03:31:06,VALID,918.177,VALID,0.0,VALID,99.484,VALID,0.008,VALID,20.128,VALID,343.0,VALID,0.0,
2019-04-01, 03:32:06,VALID,918.18,VALID,0.0,VALID,99.498,VALID,0.003,VALID,20.108,VALID,341.0,VALID,0.0,
2019-04-01, 03:33:06,VALID,918.171,VALID,0.0,VALID,99.503,VALID,0.011,VALID,20.093,VALID,354.0,VALID,0.0,
2019-04-01, 03:34:06,VALID,918.178,VALID,0.0,VALID,99.502,VALID,-0.004,VALID,20.08,VALID,349.0,VALID,0.0,
2019-04-01, 03:35:06,VALID,918.177,VALID,0.0,VALID,99.507,VALID,-0.004,VALID,20.073,VALID,347.0,VALID,0.0,
2019-04-01, 03:36:06,VALID,918.187,VALID,0.0,VALID,99.498,VALID,0.002,VALID,20.058,VALID,339.0,VALID,0.0,
2019-04-01, 03:37:06,VALID,918.186,VALID,0.0,VALID,99.496,VALID,-0.004,VALID,20.043,VALID,345.0,VALID,0.0,
2019-04-01, 03:38:06,VALID,918.224,VALID,0.0,VALID,99.497,VALID,0.002,VALID,20.036,VALID,352.0,VALID,0.0,
2019-04-01, 03:39:06,VALID,918.237,VALID,0.0,VALID,99.499,VALID,-0.013,VALID,20.039,VALID,313.0,VALID,0.0,
2019-04-01, 03:40:06,VALID,918.246,VALID,0.0,VALID,99.502,VALID,-0.016,VALID,20.032,VALID,345.0,VALID,0.0,
2019-04-01, 03:41:06,VALID,918.267,VALID,0.0,VALID,99.496,VALID,-0.011,VALID,20.021,VALID,345.0,VALID,0.0,
2019-04-01, 03:42:06,VALID,918.285,VALID,0.0,VALID,99.493,VALID,-0.01,VALID,20.033,VALID,345.0,VALID,0.0,
2019-04-01, 03:43:06,VALID,918.306,VALID,0.0,VALID,99.508,VALID,-0.005,VALID,20.065,VALID,344.0,VALID,0.0,